This is the latest recevied weather packets stored in our database for station/object KB4JAC-13. If no packets are shown the sender has not sent any weather packets the latest 10 day(s).
| Time | Temp. | Humidity | Pressure | Rain* | Wind** | Luminosity | Snow |
|---|---|---|---|---|---|---|---|
| 1788179751 | 21.67° C | 99% | 995.8 hPa | 0 mm | - | - | - |
| 1788179150 | 21.11° C | 99% | 995.7 hPa | 0 mm | - | - | - |
| 1788178549 | 21.11° C | 99% | 995.9 hPa | 0 mm | - | - | - |
| 1788177950 | 20.56° C | 99% | 995.8 hPa | 0 mm | - | - | - |
| 1788177349 | 20.56° C | 99% | 995.5 hPa | 0 mm | - | - | - |
| 1788176748 | 20.56° C | 99% | 995.7 hPa | 0 mm | - | - | - |
| 1788176147 | 20° C | 99% | 995.6 hPa | 0 mm | - | - | - |
| 1788175548 | 20° C | 99% | 995.3 hPa | 0 mm | - | - | - |
| 1788174947 | 20° C | 99% | 995.2 hPa | 0 mm | - | - | - |
| 1788174346 | 20.56° C | 99% | 995.3 hPa | 0 mm | - | - | - |
| 1788173745 | 20.56° C | 99% | 994.9 hPa | 0 mm | - | - | - |
| 1788173145 | 20.56° C | 99% | 995 hPa | 0 mm | - | - | - |
| 1788172544 | 20.56° C | 99% | 994.9 hPa | 0 mm | - | - | - |
| 1788171944 | 20.56° C | 99% | 994.9 hPa | 0 mm | - | - | - |
| 1788171343 | 20.56° C | 99% | 994.7 hPa | 0 mm | - | - | - |
| 1788170743 | 20.56° C | 99% | 994.6 hPa | 0 mm | - | - | - |
| 1788170158 | 20.56° C | 99% | 994.5 hPa | 0 mm | - | - | - |
| 1788169542 | 20.56° C | 99% | 994.3 hPa | 0 mm | - | - | - |
| 1788168942 | 20.56° C | 99% | 994.4 hPa | 0 mm | - | - | - |
| 1788168341 | 20.56° C | 99% | 994.4 hPa | 0 mm | - | - | - |
| 1788167740 | 20.56° C | 99% | 994.3 hPa | 0 mm | - | - | - |
| 1788167140 | 20.56° C | 99% | 994.2 hPa | 0 mm | - | - | - |
| 1788166539 | 21.11° C | 99% | 994.1 hPa | 0 mm | - | - | - |
| 1788165939 | 21.11° C | 99% | 994.1 hPa | 0 mm | - | - | - |
| 1788165338 | 21.11° C | 99% | 994.1 hPa | 0 mm | - | - | - |
* Rain since midnight (hover to see other rain measurements)
** Current wind speed in m/s (hover to see current wind gust speed)